Wind_Speed
20 22 27 30 31 32 33 33 30 25 22 24 25 26 28 28 26 26 28 27 29 33 36 37 33 31 32 32 28 23 25 31 32 31 32 32 33 33 33 31 30 31 28 26 27 28 26 24 24 26 29 31 32 31 31 30 30 29 28 26 24 23 24 26 28 29 28 26 26 27 27 28 29 29 29 30 30 30 30 29 27 25 25 24 23 23
22 26 29 30 28 27 29 32 30 26 26 27 26 26 27 29 28 26 27 29 29 30 30 31 32 31 30 31 33 28 25 30 33 32 32 33 34 34 34 32 29 30 30 29 28 29 26 23 26 28 31 32 31 31 31 30 29 28 26 24 22 20 21 24 26 26 25 24 25 26 27 28 28 28 28 29 30 30 30 29 27 26 26 25 24 24
25 30 30 27 25 25 26 30 31 28 29 30 27 27 28 28 28 27 27 28 31 30 26 27 30 32 30 29 33 32 27 27 31 32 32 33 34 35 34 33 31 31 32 30 28 29 26 24 29 31 32 33 32 31 31 30 29 26 21 18 17 18 19 23 23 22 22 22 24 25 25 26 26 27 27 28 29 29 30 29 28 28 27 26 26 26
25 28 28 25 24 26 26 28 31 30 30 31 28 26 29 29 26 27 29 28 30 30 24 24 27 29 29 29 31 34 31 26 26 30 31 31 34 35 34 34 32 32 33 32 29 29 27 27 32 33 32 33 33 31 31 29 27 21 16 14 15 18 20 21 20 19 21 22 24 24 24 25 25 25 25 27 29 30 30 30 31 30 29 28 28 27
26 23 22 24 24 26 28 28 31 33 31 32 31 26 26 29 27 26 27 26 28 28 24 22 24 27 30 31 31 33 33 30 26 27 30 30 33 34 33 34 33 32 33 33 32 31 30 30 32 33 33 33 32 30 28 26 22 17 15 15 16 18 19 20 19 19 21 23 23 23 23 24 25 25 26 26 29 30 30 30 32 31 29 29 28 26
27 23 20 22 25 26 29 30 32 34 31 31 34 29 24 26 27 27 27 26 28 27 27 25 19 20 29 33 32 31 34 36 31 28 30 31 32 33 33 34 34 34 35 34 32 31 31 31 31 32 32 31 30 28 26 22 19 17 17 18 18 17 19 20 19 19 22 23 22 21 22 23 24 25 25 25 27 29 30 30 30 29 29 29 28 27
25 26 24 22 26 28 28 31 32 32 32 30 31 31 28 25 23 28 29 27 27 23 24 28 20 13 23 32 34 32 33 37 36 32 31 32 32 34 34 34 35 36 37 36 32 31 33 36 35 33 32 30 28 26 24 21 18 18 20 19 18 18 20 21 20 20 22 22 19 18 19 20 21 23 23 24 25 27 29 29 28 28 29 30 29 28
20 24 27 23 25 29 29 31 31 32 33 30 28 30 31 28 22 25 29 28 27 22 20 29 28 18 18 28 33 33 32 34 39 36 33 33 33 35 34 34 35 37 38 38 35 33 35 39 39 36 34 31 29 26 23 21 20 21 21 20 20 21 21 21 21 21 22 21 18 16 18 18 19 20 21 22 24 26 29 29 28 28 28 29 29 27
18 22 27 24 24 29 31 30 29 31 32 29 26 28 32 30 23 23 29 28 26 23 20 27 31 19 16 23 30 34 35 34 39 41 37 35 34 35 36 34 35 36 36 37 37 35 37 40 41 38 35 32 29 26 23 22 22 22 21 21 22 22 22 22 21 22 22 20 18 17 18 18 18 18 19 21 24 28 31 31 30 29 28 29 29 26
16 20 23 24 24 26 29 29 28 29 30 28 25 27 31 28 25 24 27 28 25 20 20 26 30 19 13 21 29 34 39 37 37 40 40 37 35 35 37 36 35 35 35 36 36 36 37 38 40 38 35 33 30 26 24 24 24 23 22 23 23 23 24 23 22 22 21 20 19 19 19 19 19 18 20 22 25 29 32 33 31 30 30 30 28 25
16 17 20 24 24 23 25 27 28 28 27 27 25 27 30 27 24 22 24 29 22 15 21 28 31 24 13 19 29 32 37 37 35 37 40 39 37 36 37 37 36 36 36 36 36 38 37 36 37 38 37 35 32 27 26 26 25 24 24 24 24 26 26 24 23 22 22 22 21 21 20 20 19 19 22 24 26 29 31 32 31 30 32 30 26 23
20 17 19 24 23 21 23 26 27 27 27 28 27 28 28 23 20 16 20 25 15 11 22 27 29 28 17 19 27 29 31 36 36 37 40 40 38 37 38 38 37 37 37 38 39 40 40 37 37 40 40 39 35 30 28 27 26 26 25 25 26 27 27 25 23 22 22 22 22 21 20 21 20 21 24 25 26 28 30 32 32 32 34 29 23 22
21 20 18 20 22 22 22 25 27 28 29 29 29 31 25 15 14 12 13 15 11 11 21 26 26 25 21 21 24 26 29 33 36 37 38 40 39 37 37 37 37 38 38 40 40 40 42 42 39 38 41 42 38 32 29 29 28 28 27 27 27 27 27 26 23 22 21 21 21 20 21 21 21 22 25 26 25 26 29 31 33 34 32 24 20 21
17 17 19 19 21 24 22 24 29 30 31 32 32 32 23 12 9 10 10 9 10 13 19 26 24 18 20 23 23 25 27 29 32 33 35 38 39 38 37 37 37 37 38 39 40 40 41 44 43 38 36 38 37 33 31 31 30 30 29 28 28 28 27 25 22 21 21 21 20 21 22 23 22 23 24 25 24 24 27 30 32 33 28 21 19 20
15 13 19 21 20 23 23 23 28 28 30 33 32 31 28 21 14 9 9 7 9 13 17 21 19 14 15 19 24 24 19 25 31 31 34 36 36 37 36 37 37 37 38 37 38 39 39 42 43 39 34 33 35 34 33 33 32 31 30 29 28 27 24 21 19 20 21 21 21 21 23 23 23 24 23 24 24 23 26 29 31 30 25 21 20 20
16 13 19 23 19 21 22 23 27 26 26 30 31 30 30 29 21 12 11 12 11 11 13 17 16 17 15 13 22 21 11 21 32 30 32 34 34 37 37 37 37 36 38 37 36 38 40 41 41 40 38 34 34 36 36 35 33 32 31 29 27 23 20 17 17 19 20 20 21 20 21 21 22 24 23 24 24 23 25 30 31 27 24 22 20 20
14 13 18 24 21 21 22 23 27 25 23 28 31 31 29 27 23 16 13 16 14 8 10 16 16 19 19 13 20 23 12 17 29 29 29 33 35 38 38 37 37 36 36 35 35 36 39 41 40 40 41 36 33 34 36 36 35 33 29 26 24 20 17 17 18 19 18 18 17 17 18 19 20 21 22 23 24 22 24 29 30 27 25 24 21 22
12 10 18 26 24 23 24 22 23 24 24 28 29 29 28 25 24 20 12 10 12 7 9 18 17 18 20 14 17 26 19 16 24 28 27 30 35 37 37 38 36 35 34 33 34 34 36 39 40 40 39 34 30 31 33 35 35 32 28 25 23 20 18 19 20 19 18 16 14 14 17 18 17 17 20 23 23 22 24 28 31 30 28 27 24 23
10 9 17 28 25 24 25 22 21 24 27 28 25 25 27 21 18 20 13 7 10 7 6 16 18 17 21 19 20 25 24 20 22 26 27 29 34 35 36 37 36 34 34 33 33 32 35 39 39 39 37 32 30 31 32 33 32 30 28 25 23 21 20 21 20 19 17 15 14 15 17 18 17 17 21 23 22 22 24 27 30 31 29 28 26 23
7 7 13 25 26 24 26 25 22 25 29 27 21 24 28 20 14 19 17 11 12 7 5 12 14 15 21 23 24 23 23 24 23 23 24 28 32 33 35 36 35 34 34 33 33 33 35 37 36 36 36 34 31 32 32 32 31 30 28 26 24 23 22 22 21 19 18 16 16 17 18 19 19 20 22 24 22 22 23 25 29 30 29 28 25 22
7 6 9 21 27 25 26 27 25 24 27 25 22 24 28 22 17 20 18 16 15 8 5 7 7 14 23 23 27 27 23 26 28 25 24 26 29 31 33 34 34 34 34 33 34 34 35 35 34 33 34 34 32 32 33 31 30 30 29 28 26 23 21 21 20 19 18 17 17 18 19 19 20 21 23 24 23 22 22 24 28 28 26 26 23 20
8 9 11 16 24 28 27 27 26 24 23 22 22 24 27 23 20 17 12 16 19 13 10 7 4 14 25 22 24 30 27 28 31 30 28 26 27 29 30 32 33 33 34 33 33 35 35 35 35 33 32 33 34 33 32 31 31 29 28 26 23 21 19 19 19 18 17 16 17 19 19 19 19 20 22 24 23 22 22 24 27 26 25 24 22 21
9 9 12 14 18 27 26 24 25 23 22 21 21 24 25 23 22 16 9 11 17 16 16 13 6 12 25 26 23 24 25 27 29 31 31 28 28 30 31 31 32 32 33 34 33 34 35 36 36 35 33 33 33 31 30 29 28 25 24 22 21 20 19 19 18 17 16 16 17 19 19 19 19 19 21 23 22 20 22 24 25 25 24 23 22 23
9 9 11 12 14 24 27 25 24 23 23 22 22 24 24 22 22 18 12 12 15 15 15 10 4 9 24 31 26 18 19 24 27 28 29 29 30 31 32 33 34 35 35 35 35 36 37 38 37 33 30 29 29 29 27 26 24 23 22 21 20 20 19 18 17 16 16 17 18 19 20 19 18 18 19 20 19 18 19 21 24 23 22 20 19 22
10 9 11 10 11 19 23 22 24 24 25 24 22 23 23 23 23 20 17 15 13 15 16 10 4 10 21 24 19 17 18 20 24 27 28 29 30 31 30 31 33 34 35 36 39 41 40 38 34 29 27 27 28 27 25 23 23 22 22 21 21 20 19 17 17 16 16 17 18 19 19 17 17 17 18 19 19 17 16 18 21 21 20 19 18 21
9 8 12 11 9 12 14 16 24 28 28 25 22 21 21 22 23 20 17 12 9 13 19 17 11 12 15 15 18 22 23 20 21 24 26 26 29 31 29 29 32 34 36 38 39 38 35 32 28 25 25 26 26 25 23 22 22 22 22 22 22 20 18 17 17 16 15 17 19 19 17 17 17 18 19 20 20 19 18 18 19 20 20 19 18 22
6 7 11 15 14 15 18 22 28 30 29 26 23 23 22 22 23 20 14 11 12 13 13 15 19 18 14 12 14 18 21 19 19 23 25 27 30 33 33 32 33 33 34 34 32 30 29 27 24 23 23 24 24 23 22 22 22 22 22 22 22 20 19 18 17 16 15 17 19 18 17 16 17 18 19 19 20 20 19 18 18 20 19 18 18 20
7 9 9 16 19 18 20 25 27 28 29 27 25 24 23 23 24 22 15 13 17 12 2 8 20 19 14 13 12 15 19 19 20 22 25 29 32 34 34 32 30 28 27 28 27 26 26 24 22 23 23 23 22 21 21 21 22 22 22 23 22 20 20 19 18 15 15 18 19 18 17 17 17 18 18 18 19 19 18 17 17 18 17 16 16 16
9 8 7 14 17 16 17 21 25 28 27 25 24 23 23 23 23 22 15 9 9 3 10 16 19 14 12 13 12 18 23 22 22 21 23 26 28 29 31 28 26 25 25 25 26 25 24 22 22 23 22 21 20 20 21 22 22 22 23 23 22 22 21 20 17 15 16 19 19 17 17 16 16 17 16 16 17 16 16 17 17 17 17 16 16 16
9 8 7 11 13 13 15 16 22 28 26 24 25 24 23 23 21 20 12 3 3 10 17 18 17 13 11 13 16 21 24 24 24 21 21 23 23 24 25 24 24 24 23 24 24 24 23 23 22 22 20 20 19 19 21 23 23 24 25 24 24 23 22 20 17 16 17 19 18 17 17 16 16 15 14 14 14 14 17 18 19 19 18 17 18 17
10 9 6 7 9 12 15 15 20 26 26 25 26 25 24 24 23 19 10 4 6 9 13 15 18 12 7 10 18 24 24 23 21 20 20 21 22 23 23 22 23 23 23 24 23 23 23 23 22 22 22 21 20 21 23 24 24 26 26 26 25 24 22 19 17 17 18 18 16 16 16 15 14 14 12 12 13 14 19 21 20 19 17 17 16 15
8 9 5 1 6 11 16 18 21 26 26 25 26 26 26 25 24 18 13 9 9 9 8 11 14 8 4 8 15 21 23 22 18 19 21 21 21 22 21 20 21 22 23 25 24 23 23 23 23 23 22 23 23 23 24 26 27 28 28 28 26 24 21 19 18 17 17 16 15 15 14 12 13 12 11 11 12 13 17 20 20 18 17 15 14 14
4 8 5 1 5 10 15 19 24 26 22 20 25 28 26 25 24 17 14 12 9 9 8 8 10 6 4 5 9 15 20 19 14 16 21 21 21 20 18 18 19 19 22 25 25 24 23 22 22 22 23 25 26 26 26 28 29 30 30 28 26 23 21 19 18 17 16 15 14 13 11 11 12 11 10 11 12 12 15 18 19 18 16 15 15 16
6 7 8 6 4 9 14 20 25 21 12 13 23 27 24 25 24 15 16 14 9 8 8 6 7 5 4 6 9 13 17 17 12 12 16 18 20 20 18 16 16 17 20 21 22 23 22 22 22 22 25 26 26 25 26 28 30 31 30 28 25 23 21 20 19 17 15 14 12 11 10 10 10 9 9 12 13 13 15 17 17 17 16 16 17 18
8 7 9 10 6 9 14 15 16 10 9 15 23 24 21 21 20 16 17 15 11 9 8 6 6 6 4 7 11 13 16 17 15 15 16 15 17 18 17 14 13 16 17 16 16 18 19 20 20 21 23 24 23 23 23 26 30 31 29 26 24 23 22 20 18 16 15 13 11 10 10 10 9 9 9 12 14 14 15 16 16 17 17 17 18 19
9 7 9 11 6 6 11 10 8 9 13 17 19 19 19 18 16 17 19 16 12 14 10 4 5 6 3 4 9 12 14 15 16 18 19 17 16 15 14 13 13 14 15 13 12 13 15 17 18 18 18 18 20 23 23 25 29 30 29 26 24 24 22 19 18 16 15 14 11 10 10 9 9 8 9 12 15 15 15 16 17 18 17 17 19 19
8 7 9 8 3 7 9 7 9 12 14 13 15 17 18 16 14 15 18 17 15 18 13 6 5 5 2 1 3 7 8 8 11 16 19 19 18 16 15 14 13 12 13 13 12 11 13 16 16 17 17 17 20 22 23 26 28 28 27 27 24 23 21 19 17 17 16 14 12 11 10 10 10 9 8 12 15 15 15 17 17 17 17 18 19 20
7 7 8 5 4 9 7 9 9 7 9 11 15 17 17 16 13 12 16 18 18 19 16 11 9 5 2 0 4 7 7 6 7 11 15 18 19 18 17 16 13 12 12 13 12 11 13 15 17 18 19 19 20 21 24 27 27 25 25 26 24 23 21 19 18 17 16 14 13 12 11 11 11 10 10 12 15 16 17 17 17 17 17 18 20 20
6 6 6 6 9 9 6 10 5 2 7 11 11 13 17 15 13 11 11 13 15 17 15 12 9 4 4 5 7 8 7 5 4 7 11 13 15 17 19 17 15 15 13 12 12 12 12 14 18 20 20 19 20 22 24 26 25 24 25 25 23 22 22 20 19 18 16 14 13 13 13 12 12 12 13 14 16 18 18 18 19 19 18 19 21 22
4 3 5 6 10 8 7 12 4 2 8 10 8 12 18 16 13 11 6 5 12 14 11 9 4 6 9 10 10 10 9 6 4 6 8 10 10 12 15 16 16 16 15 14 13 13 13 14 18 20 21 21 23 24 25 26 26 25 25 24 24 23 22 21 20 18 16 15 14 14 13 14 14 14 15 16 18 20 20 21 22 21 19 21 23 24
5 2 3 4 6 3 7 11 7 5 9 8 8 14 19 17 13 10 5 7 12 11 9 8 7 11 13 12 12 12 9 6 5 5 7 9 9 8 10 12 12 13 15 16 16 17 16 16 18 21 21 21 23 24 24 25 27 26 24 24 25 24 22 20 19 18 16 15 14 14 14 15 15 15 17 18 19 21 22 23 22 20 20 22 24 24
6 5 2 3 2 2 8 11 8 6 6 7 9 17 20 16 12 10 9 9 10 9 8 7 7 14 15 12 11 10 8 6 6 6 6 8 9 10 10 10 10 11 12 14 18 21 21 19 18 23 25 24 23 22 21 21 23 24 23 23 24 23 21 20 19 17 16 15 14 15 16 16 16 17 17 18 20 22 23 24 23 23 24 24 24 26
6 5 3 2 4 6 9 9 6 4 5 8 13 18 19 14 11 11 10 9 8 8 7 5 7 14 15 11 10 10 9 8 8 7 8 8 9 11 12 12 12 14 13 12 15 19 21 17 12 14 20 22 21 20 20 20 21 21 21 22 23 23 21 20 18 17 16 15 16 16 17 17 17 18 18 19 20 22 24 25 26 27 28 27 26 28
6 4 3 3 4 4 5 7 7 6 7 10 15 18 16 12 12 11 10 8 8 9 8 6 9 13 13 10 9 10 10 11 11 10 10 10 10 12 13 13 13 13 12 11 11 14 16 15 9 2 4 7 8 10 14 17 18 18 19 20 21 22 20 18 17 16 15 16 17 17 17 18 19 20 21 20 21 23 25 27 29 29 30 30 29 30
6 5 5 7 10 12 13 14 15 13 13 15 17 18 16 13 12 10 9 8 8 9 8 8 11 14 14 13 13 12 13 13 12 10 9 10 11 13 15 15 14 13 12 12 12 12 14 16 12 4 6 5 6 6 5 7 10 12 13 14 16 18 18 17 16 15 15 16 17 17 18 19 21 22 22 22 23 24 26 27 29 30 30 31 31 32
10 10 13 18 20 20 19 17 17 18 18 18 19 18 16 14 12 10 10 9 9 10 8 9 13 15 16 17 17 14 13 12 10 9 8 8 10 13 14 13 13 13 12 11 11 12 13 14 13 9 7 5 3 4 4 2 2 3 5 7 9 12 13 13 13 13 14 15 16 17 19 21 22 23 23 23 24 24 25 26 27 29 30 31 31 32
13 15 18 18 16 17 18 16 17 19 18 17 17 15 14 13 11 10 9 9 10 10 9 8 12 16 17 18 18 15 14 14 12 11 10 10 10 11 11 9 9 9 9 8 9 10 11 12 12 10 9 8 6 4 2 3 3 2 1 3 5 6 7 8 9 11 12 14 17 19 21 22 24 24 25 25 25 24 24 24 25 27 29 29 29 32
10 12 13 11 12 16 17 15 16 17 16 15 15 14 11 11 10 10 10 9 8 9 7 4 6 12 17 21 21 19 17 16 14 12 11 11 11 10 10 8 8 8 8 8 9 10 10 10 10 10 9 9 9 9 8 7 6 5 3 4 4 5 5 7 8 10 12 14 16 19 21 22 24 25 26 26 26 25 25 24 25 26 27 26 27 31
9 10 9 11 15 18 17 15 14 15 15 15 14 12 11 11 10 11 12 11 9 8 7 3 2 4 10 17 21 20 17 16 15 13 12 12 11 11 10 10 9 9 9 9 9 10 10 11 11 11 10 10 9 9 9 8 7 7 6 7 7 8 8 9 10 12 13 15 17 18 20 21 22 24 25 26 27 26 25 25 25 25 24 23 26 30
11 12 12 14 15 15 15 15 13 11 11 13 12 10 10 11 10 9 10 11 11 11 9 6 4 6 4 7 12 16 16 14 13 11 10 10 10 9 9 9 8 9 9 9 9 9 10 10 9 9 8 8 7 7 7 7 7 7 7 8 9 11 11 12 14 15 16 17 18 19 20 21 22 24 25 25 26 26 26 26 25 23 21 22 25 29
12 12 12 13 14 14 14 15 13 8 8 9 8 8 10 13 12 10 10 11 10 10 11 8 4 4 3 1 1 4 8 9 9 7 6 6 6 6 6 6 7 7 8 9 9 9 9 9 9 9 8 8 8 8 8 9 9 10 11 12 13 14 15 16 17 18 19 20 21 22 22 21 22 24 25 25 26 27 27 26 24 22 21 21 25 30
Wind_Direction
215 218 219 218 219 215 212 211 213 218 215 209 208 208 211 216 218 213 212 212 202 201 211 215 220 222 219 220 217 215 215 211 211 212 211 209 208 207 203 205 220 229 231 227 221 222 223 220 218 218 213 206 203 200 199 197 194 197 202 206 213 222 229 234 240 244 247 251 254 256 257 257 257 254 250 247 242 234 230 229 228 228 230 231 231 231
216 222 224 220 221 219 216 216 215 220 223 219 216 212 210 215 220 217 212 212 207 207 211 213 218 220 219 220 216 213 216 213 211 211 211 210 209 210 206 204 216 227 229 227 221 222 221 214 213 212 207 202 199 196 194 197 197 199 204 210 220 230 237 242 244 248 253 256 258 258 259 259 260 258 253 248 244 238 234 232 230 229 232 232 230 231
224 223 226 222 221 222 218 216 216 219 225 230 231 224 215 212 214 219 215 210 208 208 211 210 214 220 219 220 218 214 216 215 211 211 211 210 209 209 207 203 212 223 226 227 220 219 218 209 209 209 203 198 195 194 195 199 201 202 207 214 225 235 242 247 248 250 255 257 257 257 259 260 260 258 253 246 242 239 237 235 232 231 231 232 231 232
230 226 225 222 220 221 219 214 213 215 222 229 235 231 222 213 207 214 211 206 208 206 207 211 212 219 219 219 220 215 214 215 211 210 210 211 209 208 207 203 209 218 222 224 219 216 215 207 208 208 201 196 196 197 197 201 205 205 209 218 230 236 242 250 251 252 254 254 254 254 256 257 255 254 250 244 239 238 238 236 235 235 234 235 237 237
232 230 222 220 220 218 217 215 210 211 218 224 229 229 224 215 207 213 208 198 208 206 201 209 212 217 218 215 217 214 212 213 211 209 207 210 208 206 207 203 206 213 218 222 217 214 213 207 208 207 200 197 198 200 202 205 208 209 217 227 233 237 243 252 251 249 249 248 250 251 251 252 251 252 250 245 241 240 239 238 237 237 237 238 239 241
231 232 223 214 216 217 216 215 210 207 212 219 224 225 224 219 209 212 209 194 205 206 195 204 214 214 215 215 215 210 209 211 211 210 206 206 205 203 205 202 203 211 218 221 215 210 210 204 202 201 198 199 202 205 208 210 212 217 226 232 237 242 245 249 247 244 245 245 247 251 253 255 257 259 259 256 250 246 244 242 240 238 237 238 238 241
231 232 229 216 210 215 216 215 212 206 209 216 219 218 222 226 212 211 212 199 204 206 192 203 219 219 208 212 213 206 207 210 210 211 207 205 204 202 203 201 202 210 216 219 216 211 207 200 197 198 200 203 207 211 213 214 218 224 231 236 242 246 244 243 244 244 246 248 249 254 258 258 260 263 265 262 256 250 246 244 243 239 237 238 237 239
225 225 230 225 209 210 214 215 211 205 209 214 212 211 220 229 223 211 211 206 204 209 203 202 213 229 218 207 208 206 206 208 208 209 206 204 203 201 202 201 201 209 214 217 217 211 205 201 199 200 203 207 211 213 215 219 225 230 234 239 245 247 242 240 242 245 249 253 255 258 261 261 263 266 266 264 260 253 249 244 240 237 235 236 237 238
218 221 225 223 212 209 210 211 210 205 210 213 206 207 215 229 234 214 210 212 203 206 218 205 202 222 235 210 200 202 207 207 206 207 205 204 203 200 201 200 199 206 213 217 217 211 207 207 205 204 205 210 214 215 217 224 229 234 238 242 247 247 242 239 241 244 248 253 258 260 261 263 266 269 270 268 261 255 253 248 239 235 233 231 234 238
218 218 221 222 218 211 207 208 209 207 209 209 204 203 209 227 239 221 213 214 204 203 219 210 198 205 235 216 200 198 205 207 204 206 206 205 205 202 200 199 198 201 208 214 215 211 211 211 209 210 210 212 216 217 220 227 231 236 241 244 248 248 243 240 241 242 245 250 257 261 263 264 266 269 273 273 267 258 252 247 241 236 233 230 230 234
231 223 220 219 219 212 207 207 208 208 206 205 203 198 204 223 232 220 215 214 210 209 215 213 203 201 220 220 206 200 201 204 203 203 204 204 204 203 201 199 199 200 205 211 214 213 213 214 215 217 216 216 217 218 222 228 232 237 241 244 248 248 245 242 241 241 244 250 258 265 269 271 272 273 275 275 270 261 249 243 240 238 237 231 226 230
238 239 223 216 218 214 208 205 207 208 203 203 204 195 197 210 211 211 218 217 221 218 211 216 209 199 209 218 210 206 202 201 204 202 201 201 201 201 200 200 200 200 203 207 210 212 213 213 216 219 221 221 220 220 222 227 231 235 239 243 247 248 247 244 243 242 246 252 261 270 276 278 277 274 274 274 270 261 248 240 239 240 240 233 223 226
231 236 222 215 216 211 210 208 203 201 199 203 204 193 189 193 193 204 218 214 222 217 208 219 217 204 209 217 211 210 206 201 203 203 200 199 199 200 199 199 199 200 203 207 209 212 214 215 216 220 222 222 220 220 222 225 230 233 237 243 246 247 247 248 248 247 249 254 262 272 275 275 272 268 268 269 266 257 245 240 242 244 242 233 224 227
215 225 219 217 215 207 212 210 198 195 199 203 200 192 188 187 189 201 211 208 213 216 210 216 222 213 208 215 215 214 210 202 200 202 200 198 198 199 198 197 199 200 203 208 209 210 216 219 220 221 221 221 220 219 221 226 230 234 239 243 244 245 248 251 254 254 255 257 263 271 273 272 271 270 271 270 265 253 242 239 241 245 246 239 233 231
201 213 208 205 208 204 208 210 199 192 196 200 200 196 193 196 197 195 205 207 200 212 215 213 219 216 200 203 209 214 212 199 196 197 198 198 198 198 197 196 197 199 202 207 209 207 213 221 222 222 223 225 226 223 223 227 231 237 241 242 242 243 248 254 258 260 260 261 266 271 275 279 280 280 277 270 263 251 242 239 239 243 243 240 238 232
206 212 199 189 193 199 201 203 195 188 192 199 201 200 197 199 199 200 214 213 204 212 216 215 218 209 202 200 199 206 216 197 192 192 193 194 194 195 196 196 197 199 202 205 208 205 208 217 221 221 223 228 232 230 227 227 232 238 241 242 241 242 247 255 260 263 265 267 272 275 281 290 293 289 282 272 266 257 246 241 241 245 243 238 237 231
204 207 197 186 189 199 201 199 196 197 197 198 202 203 201 199 193 195 214 215 215 221 206 215 214 194 202 224 203 197 201 188 184 185 189 190 191 195 196 197 198 199 200 202 206 206 206 213 218 220 222 227 232 232 228 227 231 236 238 238 238 241 248 257 261 266 270 273 275 276 281 292 297 294 286 278 273 264 250 241 242 249 249 246 244 233
210 206 194 186 188 197 201 202 207 214 204 194 202 205 199 203 202 200 210 208 211 223 201 211 211 189 197 214 198 189 182 174 177 182 188 189 190 195 196 197 198 199 199 200 203 206 207 212 217 218 219 225 229 229 227 227 230 234 234 233 237 245 254 260 263 266 270 268 263 265 273 280 286 284 277 273 271 262 249 242 242 246 249 252 252 239
229 226 193 186 188 190 197 204 208 216 212 201 203 201 198 211 212 201 209 205 196 212 208 203 204 203 202 188 177 182 177 172 179 182 187 188 188 193 195 196 199 198 198 199 201 205 207 212 218 218 218 222 226 227 228 228 229 233 236 237 243 253 257 258 258 259 261 256 253 261 265 264 265 265 263 264 264 258 248 244 244 247 250 251 248 239
237 243 196 189 190 185 192 202 202 208 215 217 219 210 208 223 217 199 211 213 193 200 215 196 191 210 213 187 173 181 179 176 181 182 185 185 186 191 194 196 199 198 198 198 200 206 210 214 220 220 219 223 228 230 230 228 229 234 239 243 250 255 254 251 249 252 254 248 249 258 258 254 253 254 256 258 258 254 247 245 245 247 249 248 242 236
214 227 210 194 189 186 191 198 201 204 205 216 234 222 209 217 216 205 214 216 204 198 203 196 181 207 215 195 178 185 186 183 185 186 185 185 187 192 194 196 197 196 197 198 199 206 212 216 220 222 221 223 228 233 232 230 230 234 240 246 249 248 244 241 242 248 250 245 250 258 255 251 250 252 254 255 254 249 245 246 248 247 245 241 236 234
206 212 230 214 191 187 192 192 198 205 197 202 224 214 200 206 210 204 210 213 207 204 200 194 176 204 214 208 189 186 188 190 192 191 189 188 190 192 194 196 196 195 197 196 199 207 214 217 221 223 222 221 226 232 233 231 232 235 240 242 239 233 229 229 236 244 244 245 254 258 253 248 248 251 253 254 252 249 247 249 251 248 243 240 237 238
209 204 231 241 205 189 193 191 192 198 195 198 209 205 202 210 210 205 208 205 204 204 198 192 194 203 205 207 199 184 182 191 196 195 193 191 190 189 190 192 192 195 196 194 198 207 214 218 221 222 221 221 226 232 233 233 233 234 234 230 225 223 222 226 236 239 239 246 255 255 250 247 247 249 252 256 256 252 252 254 253 247 243 246 245 242
205 202 217 245 225 198 194 192 191 194 193 197 204 206 214 221 213 210 216 208 211 210 191 185 232 197 185 194 199 183 177 189 193 193 193 191 190 189 189 190 189 191 193 192 196 205 212 217 221 223 220 220 225 229 231 231 230 227 224 220 218 218 219 226 233 233 237 248 252 250 247 246 249 250 252 258 258 252 253 259 256 247 243 248 244 238
205 205 205 221 223 202 193 187 189 195 195 197 203 208 217 221 212 215 220 210 218 217 191 179 207 171 164 173 175 159 160 175 183 188 189 190 193 194 195 196 195 194 194 194 199 206 213 219 223 224 220 220 225 228 227 225 221 219 217 216 215 215 219 225 227 228 238 249 249 248 247 247 251 253 253 255 256 254 257 261 256 243 237 239 232 228
211 220 207 209 210 196 192 186 185 191 194 195 199 201 208 212 208 215 222 215 222 216 198 189 180 162 157 144 129 137 149 154 162 174 182 186 189 190 191 194 195 195 198 202 206 211 216 219 220 220 219 220 223 223 219 215 214 215 215 214 212 212 217 221 221 225 238 248 250 248 246 247 251 253 254 254 254 256 260 259 249 235 228 229 228 230
232 256 228 226 225 204 195 190 185 187 189 191 195 196 200 207 205 206 213 221 225 223 217 196 171 160 163 150 134 147 158 159 158 162 169 176 178 181 185 191 196 197 201 208 211 213 215 215 215 216 216 217 217 215 213 213 215 215 212 209 208 210 213 214 216 223 237 247 247 245 244 248 252 254 255 255 255 258 258 251 243 237 232 227 228 233
272 281 236 222 228 219 201 192 186 186 189 190 193 195 197 201 202 205 213 227 229 235 283 131 141 142 154 158 164 174 169 172 179 176 177 179 179 185 191 198 203 204 205 209 210 212 215 215 213 212 210 211 212 212 213 215 214 212 208 205 206 208 208 208 210 220 236 243 242 243 248 252 255 257 260 262 261 258 250 240 237 238 235 226 224 228
276 292 221 207 225 228 208 194 188 188 191 191 192 195 200 201 201 207 216 229 229 185 91 114 121 114 132 139 148 167 168 174 182 184 188 188 187 193 197 201 205 204 203 206 209 214 218 215 209 206 205 208 211 213 213 213 210 206 204 204 205 205 203 204 209 218 231 238 240 246 252 254 258 262 267 270 266 254 242 236 231 229 230 227 225 227
281 293 239 225 232 223 212 205 194 191 190 189 192 197 199 199 201 205 205 204 136 95 99 131 136 115 122 134 136 149 162 176 175 170 182 189 186 191 194 196 199 200 202 208 212 216 215 210 204 201 203 207 210 212 213 211 208 203 202 203 201 200 199 202 208 217 227 235 240 245 251 254 259 265 270 271 263 242 229 229 228 228 229 224 219 221
276 285 271 244 228 213 216 217 201 194 192 188 191 194 193 196 205 201 180 151 162 122 100 126 138 124 112 140 149 151 161 177 171 158 171 183 182 184 187 190 194 196 201 207 210 210 206 203 201 202 205 208 210 213 212 210 207 202 201 201 198 196 198 200 207 217 226 233 237 241 247 253 259 266 269 263 253 234 223 225 227 227 222 216 214 216
275 296 315 256 240 235 227 219 203 194 194 192 192 193 193 199 202 188 156 142 150 141 119 112 114 118 130 149 162 167 172 181 171 154 162 173 178 178 179 187 194 196 201 204 203 203 201 201 203 205 209 212 212 212 210 208 207 203 199 197 194 194 197 200 208 217 223 229 232 236 245 253 259 267 265 249 241 230 222 222 220 215 211 212 216 218
287 315 334 297 260 248 227 211 198 192 192 195 196 194 193 195 194 173 144 151 145 122 128 109 88 101 139 145 171 179 180 186 177 155 156 162 168 170 172 180 184 186 195 199 199 201 201 203 208 212 216 217 214 211 209 207 205 201 196 193 192 194 198 202 209 215 219 222 227 234 244 253 258 264 257 238 229 219 212 211 209 208 211 216 218 221
296 319 335 337 293 253 230 201 188 189 192 190 191 192 194 196 193 163 129 148 159 117 111 106 100 117 123 131 161 174 176 179 173 158 155 153 153 156 163 172 173 173 182 189 193 198 202 207 212 216 216 213 206 203 205 203 199 195 192 190 191 194 200 205 208 210 213 216 221 232 243 249 254 260 246 227 220 212 204 204 209 214 218 221 223 226
295 310 324 325 308 265 245 210 187 183 181 181 185 187 191 193 186 158 137 149 172 159 133 108 118 131 118 135 157 169 172 174 172 165 161 155 146 145 152 166 175 173 172 175 183 192 200 207 210 210 212 210 200 194 197 196 192 190 190 190 192 197 202 204 204 206 208 207 212 227 237 242 251 256 239 221 217 215 209 210 218 224 227 228 230 232
283 295 308 316 313 251 238 219 188 162 160 176 185 182 181 182 180 175 163 159 183 191 178 145 125 133 129 157 169 175 177 182 184 175 165 159 154 150 154 173 187 179 168 167 175 184 194 201 201 200 204 209 205 201 201 197 189 186 188 190 193 199 201 201 202 206 205 202 205 218 228 235 244 249 237 221 218 219 219 220 225 227 229 232 236 238
265 277 300 317 292 220 210 166 145 148 149 167 181 178 177 171 171 183 174 163 188 201 190 189 185 160 159 264 164 158 157 158 166 168 164 162 161 162 167 181 191 182 172 174 175 178 188 192 191 188 190 199 207 206 205 200 190 185 188 191 194 198 198 198 202 206 203 202 205 212 221 229 235 240 235 221 218 221 223 224 227 229 233 238 244 246
243 255 281 296 256 234 196 132 126 144 152 170 179 181 183 165 143 165 177 173 189 200 197 210 222 203 177 94 121 125 111 91 114 148 162 166 166 168 174 182 185 178 175 179 175 172 182 187 187 186 188 198 208 206 204 203 196 188 189 193 194 196 196 198 203 205 202 203 208 214 221 226 228 233 231 221 217 221 223 225 228 233 239 246 251 252
220 240 268 279 282 270 184 139 139 144 149 166 172 178 185 169 131 135 163 172 187 198 204 220 231 204 152 139 137 138 126 103 114 143 158 169 175 178 180 181 182 180 176 173 171 172 181 188 189 189 190 197 202 200 201 203 198 191 193 195 194 194 196 199 203 203 202 205 212 217 223 228 229 230 230 224 221 222 223 226 231 236 242 250 253 253
176 230 253 270 289 282 149 130 117 116 141 147 150 168 178 169 144 136 136 175 196 202 213 221 197 134 137 148 161 164 151 144 160 152 154 168 180 186 186 184 185 181 171 169 176 179 181 186 189 190 191 192 194 194 195 197 195 193 194 195 193 194 197 200 202 201 202 208 216 221 228 234 234 231 231 231 229 229 230 234 239 243 246 248 249 248
110 136 214 249 294 296 131 122 108 124 140 133 135 165 173 167 161 163 160 180 194 203 220 216 164 127 133 146 162 170 162 151 154 147 153 166 171 175 179 182 185 179 171 174 177 177 182 191 192 191 191 191 193 195 194 195 196 196 193 192 194 196 198 200 200 201 204 211 219 225 232 238 238 235 236 237 238 240 242 244 248 253 254 252 249 246
103 104 169 234 277 115 128 125 112 112 136 136 142 163 172 168 164 170 170 171 187 204 217 212 158 135 140 150 156 160 162 158 147 136 141 153 158 162 163 162 166 172 181 186 181 181 190 194 185 182 185 188 192 196 199 201 202 199 193 192 194 197 199 201 201 202 207 215 222 228 234 239 241 241 242 243 244 246 248 249 251 254 255 256 255 251
92 94 119 157 143 131 130 127 113 102 132 139 141 153 163 157 145 156 166 167 180 193 194 186 147 140 149 164 168 164 169 165 147 138 138 137 143 155 160 160 165 174 185 195 194 194 195 190 176 173 178 181 184 191 201 208 206 200 195 192 193 197 200 201 202 204 209 219 227 234 240 243 245 247 247 246 247 247 249 250 250 252 254 256 257 255
80 105 143 160 139 118 102 97 90 101 132 142 140 144 150 146 140 151 163 166 179 185 174 164 153 144 145 154 161 166 173 166 154 149 145 138 138 144 148 154 167 175 178 182 194 202 203 205 212 201 151 161 163 176 197 206 203 200 197 191 193 200 202 202 206 210 215 224 232 240 246 247 249 250 249 248 248 247 249 250 251 252 255 255 255 255
75 90 112 116 105 96 95 96 95 101 117 131 134 133 136 142 148 157 164 170 181 183 171 158 152 148 148 150 152 163 173 168 164 163 154 145 145 143 140 142 152 160 158 156 165 181 195 203 199 145 91 89 86 96 152 196 204 205 199 188 191 203 207 208 214 220 227 236 241 246 248 249 250 252 252 252 252 250 249 251 252 253 254 255 254 251
86 96 109 111 105 97 95 98 99 100 106 116 123 125 129 136 139 146 160 169 173 173 167 158 154 155 159 161 161 163 161 154 154 156 151 150 153 151 150 150 152 157 157 151 150 158 170 181 179 158 138 135 92 58 64 99 159 206 205 198 207 217 220 222 229 235 242 249 252 253 252 252 252 254 255 256 256 255 254 254 255 255 253 253 252 247
95 109 115 114 108 100 96 99 103 103 104 112 119 123 132 139 136 139 154 167 173 168 157 157 167 165 159 155 155 152 146 143 144 144 142 144 149 152 158 162 160 159 157 151 149 152 157 168 180 185 186 193 210 221 178 139 134 127 155 212 228 235 237 241 246 251 255 258 259 258 257 256 257 257 258 259 259 257 256 256 257 257 253 251 250 247
81 104 114 119 118 112 107 104 103 100 100 107 111 110 114 124 126 129 134 140 162 172 165 172 187 171 157 152 151 149 145 140 138 139 140 140 142 149 154 155 151 147 143 140 141 146 150 157 166 175 180 180 181 177 171 176 190 198 213 238 253 256 253 254 256 259 261 262 263 263 263 263 264 263 262 263 261 258 257 258 260 260 257 251 248 249
61 82 107 130 127 118 113 110 103 96 93 94 94 95 104 115 121 123 118 110 109 126 137 125 58 107 142 149 143 138 140 139 132 133 138 136 138 146 151 152 151 147 145 145 144 145 149 151 154 161 168 171 172 173 176 186 197 206 220 239 254 260 263 264 264 264 266 267 268 270 270 269 269 268 266 264 262 259 258 258 260 262 260 251 246 249
63 79 104 119 115 110 113 115 111 104 98 90 83 87 106 118 122 119 115 111 104 99 103 101 55 48 92 143 129 120 127 135 132 131 137 138 140 145 151 158 163 161 161 162 162 163 167 169 173 179 184 191 200 206 212 218 224 232 240 248 256 260 264 266 265 266 270 273 275 276 274 272 270 269 267 264 262 260 258 258 260 262 259 252 248 252
56 79 104 109 99 95 100 103 104 114 119 107 96 99 109 114 117 117 115 115 115 108 104 106 98 67 69 148 166 107 111 122 130 138 148 156 162 166 169 176 184 188 189 187 185 188 192 194 199 207 214 223 232 241 248 254 258 262 265 267 268 269 270 269 268 269 272 276 279 280 278 276 272 268 266 263 261 260 260 260 259 258 254 249 247 251
Height
3018 3018 3017 3016 3017 3019 3021 3024 3027 3029 3031 3033 3034 3035 3037 3038 3039 3040 3044 3046 3048 3049 3050 3053 3057 3059 3061 3063 3065 3068 3070 3071 3072 3074 3077 3079 3082 3084 3087 3090 3088 3088 3092 3094 3095 3097 3099 3101 3103 3105 3107 3108 3109 3111 3113 3115 3118 3120 3122 3124 3126 3128 3129 3130 3131 3131 3132 3134 3135 3136 3136 3137 3138 3139 3139 3140 3142 3143 3145 3146 3148 3150 3151 3152 3154 3155
3016 3014 3012 3014 3017 3020 3023 3025 3027 3029 3030 3030 3032 3032 3034 3035 3036 3039 3041 3043 3046 3047 3048 3052 3054 3056 3057 3060 3062 3064 3066 3068 3069 3071 3073 3076 3079 3081 3084 3088 3087 3086 3089 3092 3094 3096 3097 3099 3100 3102 3105 3106 3107 3110 3112 3114 3116 3119 3121 3124 3126 3127 3128 3129 3129 3130 3131 3133 3133 3134 3135 3136 3136 3137 3138 3139 3141 3142 3143 3145 3147 3148 3149 3151 3152 3153
3012 3009 3010 3014 3017 3020 3022 3024 3026 3028 3028 3028 3029 3029 3029 3031 3034 3037 3038 3040 3042 3043 3046 3049 3051 3053 3055 3057 3058 3060 3063 3065 3066 3069 3071 3073 3076 3078 3081 3085 3086 3083 3085 3090 3092 3094 3096 3098 3098 3100 3103 3105 3106 3108 3110 3112 3115 3118 3121 3123 3125 3126 3126 3127 3127 3129 3130 3131 3132 3133 3134 3135 3135 3136 3137 3138 3140 3141 3142 3144 3145 3146 3147 3149 3150 3151
3007 3006 3009 3013 3016 3018 3020 3022 3024 3026 3027 3025 3026 3026 3025 3027 3030 3032 3033 3036 3039 3040 3044 3047 3049 3051 3053 3054 3055 3057 3060 3063 3064 3066 3069 3071 3073 3076 3079 3082 3084 3081 3082 3088 3091 3092 3094 3096 3096 3098 3101 3103 3105 3107 3109 3112 3115 3119 3121 3122 3123 3123 3124 3125 3127 3128 3129 3130 3130 3131 3133 3133 3134 3135 3136 3137 3138 3139 3140 3142 3143 3144 3146 3147 3149 3151
3005 3006 3010 3012 3014 3016 3018 3019 3021 3023 3024 3023 3023 3023 3023 3024 3027 3029 3031 3034 3037 3038 3041 3045 3046 3047 3048 3050 3051 3053 3057 3060 3061 3063 3065 3068 3070 3074 3076 3080 3082 3079 3079 3085 3089 3090 3092 3094 3096 3098 3100 3102 3104 3106 3109 3112 3115 3118 3120 3120 3121 3122 3123 3124 3126 3126 3127 3128 3129 3130 3131 3132 3132 3133 3134 3135 3136 3137 3139 3140 3141 3143 3145 3146 3147 3149
3004 3005 3008 3010 3012 3014 3015 3016 3017 3019 3022 3021 3020 3021 3023 3023 3025 3028 3028 3031 3034 3033 3037 3042 3041 3040 3043 3045 3047 3050 3053 3055 3058 3060 3062 3065 3068 3071 3074 3077 3080 3077 3077 3082 3087 3088 3090 3093 3095 3097 3099 3101 3103 3106 3108 3112 3115 3117 3117 3118 3119 3121 3122 3123 3124 3125 3125 3126 3127 3129 3129 3130 3131 3132 3133 3134 3135 3136 3138 3139 3140 3142 3143 3144 3145 3147
3002 3004 3005 3007 3010 3011 3013 3013 3014 3017 3019 3018 3018 3021 3022 3021 3024 3025 3025 3027 3028 3028 3034 3039 3038 3036 3038 3040 3042 3046 3049 3051 3054 3057 3059 3062 3064 3068 3070 3074 3077 3075 3075 3080 3084 3087 3089 3090 3092 3095 3097 3100 3102 3105 3108 3112 3114 3115 3115 3116 3118 3119 3120 3121 3123 3123 3123 3124 3127 3128 3128 3129 3130 3131 3133 3134 3135 3136 3136 3137 3139 3140 3141 3142 3143 3144
3001 3002 3002 3005 3007 3009 3010 3010 3012 3015 3016 3015 3018 3021 3020 3020 3022 3023 3023 3024 3026 3029 3033 3035 3037 3035 3032 3034 3038 3042 3045 3047 3050 3052 3055 3058 3061 3064 3068 3071 3074 3073 3073 3078 3082 3085 3087 3088 3090 3093 3095 3098 3100 3104 3108 3111 3112 3112 3114 3115 3116 3117 3119 3120 3121 3122 3122 3124 3126 3127 3127 3128 3129 3131 3132 3133 3134 3134 3134 3135 3137 3138 3139 3140 3141 3142
2999 3000 3000 3002 3004 3005 3006 3008 3010 3013 3014 3014 3018 3021 3020 3020 3021 3022 3023 3022 3025 3030 3030 3029 3033 3033 3029 3029 3034 3038 3040 3042 3044 3047 3051 3054 3057 3061 3065 3069 3072 3072 3072 3075 3079 3083 3085 3087 3089 3091 3093 3096 3098 3102 3107 3108 3109 3111 3113 3114 3114 3116 3117 3119 3120 3121 3122 3123 3125 3126 3126 3127 3129 3130 3131 3132 3132 3132 3131 3132 3134 3135 3136 3137 3139 3141
2998 2998 2999 3001 3002 3002 3004 3008 3010 3011 3013 3015 3018 3020 3021 3020 3020 3022 3022 3021 3023 3026 3024 3025 3028 3029 3027 3027 3029 3031 3034 3036 3039 3044 3048 3051 3055 3058 3062 3066 3069 3071 3071 3072 3077 3081 3083 3085 3088 3090 3092 3094 3096 3101 3105 3106 3107 3109 3111 3112 3113 3114 3115 3117 3118 3120 3121 3122 3123 3124 3125 3126 3127 3129 3129 3129 3129 3128 3128 3129 3131 3132 3132 3134 3137 3140
2996 2997 2999 2999 3000 3002 3004 3007 3009 3010 3013 3015 3016 3018 3020 3020 3020 3020 3020 3021 3022 3019 3018 3021 3023 3026 3026 3024 3024 3026 3028 3033 3037 3040 3044 3048 3052 3054 3058 3063 3066 3069 3070 3071 3074 3078 3081 3084 3086 3088 3090 3092 3095 3099 3102 3103 3106 3108 3109 3110 3111 3112 3113 3115 3117 3118 3120 3120 3121 3123 3124 3124 3125 3126 3126 3126 3126 3126 3125 3126 3128 3128 3128 3130 3135 3138
2994 2995 2996 2998 2999 3001 3003 3005 3007 3010 3012 3013 3014 3016 3018 3019 3019 3020 3020 3020 3016 3011 3014 3018 3019 3023 3023 3020 3022 3024 3026 3030 3034 3036 3039 3044 3048 3051 3055 3060 3063 3066 3068 3069 3071 3075 3078 3081 3083 3085 3088 3090 3093 3097 3099 3102 3104 3105 3106 3108 3109 3110 3110 3112 3115 3117 3118 3119 3120 3121 3122 3122 3123 3124 3123 3123 3124 3124 3124 3124 3125 3124 3123 3127 3133 3136
2993 2993 2993 2995 2998 2999 3001 3003 3005 3008 3010 3010 3010 3012 3014 3016 3020 3021 3018 3014 3010 3009 3014 3017 3016 3017 3018 3018 3020 3022 3024 3026 3029 3033 3036 3040 3045 3049 3052 3057 3060 3063 3066 3067 3069 3072 3075 3077 3079 3083 3086 3088 3092 3095 3097 3099 3101 3102 3104 3105 3107 3107 3108 3110 3113 3115 3117 3117 3118 3119 3120 3120 3120 3121 3120 3121 3122 3122 3122 3123 3122 3119 3121 3128 3133 3135
2992 2993 2992 2993 2996 2997 2999 3000 3001 3004 3006 3007 3006 3008 3010 3011 3016 3018 3013 3010 3010 3011 3014 3015 3014 3012 3014 3017 3018 3019 3022 3024 3027 3032 3034 3038 3043 3046 3050 3054 3057 3061 3063 3065 3067 3069 3070 3072 3076 3080 3083 3086 3090 3093 3095 3096 3098 3100 3101 3103 3104 3105 3106 3109 3112 3113 3115 3116 3116 3117 3117 3117 3117 3117 3117 3118 3119 3119 3120 3122 3121 3118 3122 3129 3132 3133
2990 2992 2991 2991 2993 2995 2997 2999 3001 3003 3005 3005 3005 3008 3008 3007 3010 3012 3010 3009 3011 3013 3013 3014 3012 3009 3010 3014 3015 3017 3020 3022 3025 3029 3032 3037 3042 3045 3048 3052 3055 3058 3060 3062 3065 3067 3067 3068 3073 3077 3080 3083 3087 3090 3092 3094 3095 3097 3099 3101 3102 3103 3106 3109 3111 3112 3113 3114 3115 3115 3115 3115 3115 3115 3115 3115 3115 3116 3117 3120 3120 3120 3124 3128 3130 3132
2989 2991 2991 2991 2993 2995 2996 2998 3001 3004 3005 3006 3006 3007 3006 3007 3009 3011 3011 3010 3012 3013 3012 3011 3009 3009 3011 3012 3013 3016 3018 3018 3022 3027 3030 3034 3039 3043 3046 3049 3052 3055 3058 3060 3062 3065 3066 3066 3070 3075 3077 3081 3084 3087 3089 3091 3093 3095 3097 3099 3101 3103 3106 3108 3109 3110 3111 3112 3113 3114 3114 3114 3114 3113 3113 3113 3113 3113 3115 3116 3117 3120 3124 3127 3130 3131
2989 2990 2991 2991 2993 2995 2996 2998 3000 3002 3003 3004 3004 3004 3005 3007 3009 3012 3012 3012 3013 3012 3010 3008 3006 3008 3012 3012 3012 3015 3016 3017 3021 3025 3029 3032 3036 3040 3043 3047 3050 3053 3056 3059 3060 3063 3065 3066 3069 3073 3075 3079 3082 3084 3086 3088 3090 3093 3095 3098 3100 3103 3105 3106 3107 3108 3109 3110 3112 3113 3112 3112 3111 3111 3111 3110 3110 3112 3114 3114 3114 3117 3121 3124 3127 3130
2989 2990 2990 2991 2993 2994 2996 2999 3000 3000 3001 3002 3002 3003 3007 3009 3009 3010 3010 3010 3012 3010 3007 3005 3003 3006 3009 3010 3011 3013 3015 3018 3021 3024 3028 3031 3034 3038 3041 3045 3048 3051 3055 3058 3059 3062 3063 3064 3067 3070 3073 3077 3079 3081 3083 3085 3088 3091 3094 3097 3099 3102 3103 3104 3105 3106 3107 3109 3110 3110 3110 3109 3109 3109 3108 3108 3109 3111 3113 3112 3113 3114 3117 3119 3123 3126
2990 2990 2989 2990 2992 2993 2996 2998 3000 3000 2999 3001 3004 3005 3005 3005 3006 3007 3007 3007 3008 3007 3005 3003 3003 3005 3006 3006 3009 3012 3014 3018 3021 3024 3027 3029 3032 3036 3039 3043 3047 3050 3053 3056 3058 3060 3061 3062 3064 3067 3071 3074 3077 3078 3080 3083 3086 3090 3093 3095 3097 3099 3101 3102 3103 3104 3106 3107 3108 3108 3107 3107 3106 3106 3106 3106 3107 3110 3111 3112 3112 3113 3114 3116 3119 3123
2991 2990 2989 2989 2991 2993 2995 2996 2997 2997 2997 2999 3003 3004 3003 3003 3005 3005 3004 3003 3004 3005 3004 3002 3003 3004 3003 3003 3008 3012 3015 3018 3022 3024 3026 3028 3031 3034 3038 3042 3045 3048 3052 3054 3057 3058 3058 3059 3062 3066 3069 3072 3074 3075 3077 3080 3084 3088 3090 3093 3095 3097 3098 3100 3101 3102 3104 3105 3105 3105 3105 3104 3104 3104 3104 3104 3106 3108 3110 3111 3110 3111 3112 3114 3116 3119
2991 2991 2990 2989 2991 2992 2992 2993 2994 2995 2996 2998 3000 3000 3001 3002 3004 3004 3003 3001 3000 3001 3001 3001 3002 3004 3003 3004 3007 3011 3014 3018 3021 3024 3026 3028 3030 3034 3037 3040 3044 3047 3050 3053 3055 3055 3055 3058 3061 3064 3066 3069 3071 3072 3075 3078 3082 3085 3088 3090 3092 3094 3096 3097 3099 3100 3102 3103 3103 3103 3103 3102 3102 3102 3102 3102 3104 3106 3108 3109 3108 3108 3110 3112 3114 3117
2991 2991 2990 2988 2990 2991 2990 2992 2994 2995 2997 2999 2999 2998 2999 3001 3002 3001 3001 3000 2999 2999 2998 3000 3003 3004 3004 3005 3006 3008 3012 3016 3019 3022 3024 3027 3030 3033 3036 3039 3043 3046 3048 3052 3053 3053 3054 3057 3059 3061 3064 3066 3068 3070 3072 3076 3080 3083 3086 3088 3090 3092 3094 3095 3097 3098 3099 3101 3101 3101 3101 3100 3100 3100 3100 3100 3102 3104 3106 3107 3106 3106 3108 3111 3113 3114
2990 2991 2990 2988 2989 2991 2991 2992 2994 2996 2998 3000 3000 2999 2999 3000 3000 3000 2999 2999 2998 2998 2997 2999 3001 3001 3002 3005 3006 3007 3010 3013 3017 3020 3023 3027 3029 3031 3034 3037 3041 3044 3047 3050 3051 3050 3052 3055 3056 3059 3062 3064 3066 3068 3071 3074 3078 3081 3084 3086 3088 3090 3091 3093 3094 3096 3097 3098 3099 3099 3099 3099 3098 3099 3098 3098 3100 3103 3104 3105 3105 3105 3107 3109 3110 3111
2990 2991 2991 2990 2991 2991 2992 2994 2995 2997 2998 2999 3000 3000 3000 3000 2999 2999 2999 2999 2998 2996 2996 2999 3000 2998 2998 3003 3005 3006 3009 3012 3016 3019 3023 3026 3028 3030 3033 3035 3039 3042 3045 3048 3048 3048 3050 3052 3054 3057 3060 3063 3065 3066 3069 3072 3076 3078 3081 3083 3085 3087 3089 3091 3092 3094 3095 3096 3096 3096 3097 3097 3097 3097 3097 3097 3099 3101 3103 3104 3104 3105 3106 3107 3107 3108
2990 2991 2992 2993 2991 2989 2988 2991 2994 2995 2996 2997 2998 2999 2999 2999 2999 2999 2999 2999 2998 2996 2996 2999 3000 2997 2998 3002 3004 3005 3008 3012 3015 3018 3022 3024 3026 3029 3031 3034 3037 3040 3042 3044 3044 3045 3048 3050 3053 3056 3059 3061 3062 3064 3067 3070 3073 3076 3078 3081 3083 3085 3087 3089 3090 3092 3093 3093 3093 3094 3095 3095 3095 3095 3096 3096 3097 3099 3101 3102 3101 3103 3105 3106 3107 3107
2989 2990 2991 2992 2989 2986 2985 2986 2989 2992 2994 2995 2997 2998 2998 2998 2998 2998 2999 2999 2997 2995 2995 2997 2998 2998 2999 3002 3003 3005 3008 3012 3014 3018 3021 3023 3025 3027 3029 3032 3034 3037 3039 3040 3042 3044 3047 3049 3052 3054 3056 3058 3060 3062 3065 3068 3071 3073 3076 3079 3081 3083 3085 3086 3088 3089 3091 3091 3091 3092 3093 3094 3094 3094 3094 3095 3095 3097 3099 3099 3099 3101 3103 3104 3106 3106
2989 2989 2989 2989 2987 2986 2986 2986 2987 2990 2992 2993 2995 2996 2997 2998 2998 2998 2999 2999 2997 2995 2995 2994 2995 2999 3001 3002 3004 3007 3010 3012 3014 3016 3018 3020 3022 3024 3026 3029 3032 3035 3037 3038 3040 3043 3045 3047 3050 3052 3054 3056 3058 3060 3063 3066 3069 3071 3073 3076 3078 3080 3082 3084 3086 3087 3088 3089 3090 3091 3092 3092 3092 3092 3093 3094 3094 3095 3096 3096 3098 3100 3102 3103 3105 3105
2988 2988 2987 2988 2986 2986 2987 2987 2989 2990 2991 2992 2994 2995 2996 2996 2997 2998 2999 2999 2997 2997 2996 2995 2995 2999 3002 3004 3006 3008 3011 3013 3014 3015 3016 3017 3019 3022 3025 3028 3031 3033 3035 3037 3039 3041 3043 3045 3047 3049 3051 3053 3056 3059 3061 3063 3066 3068 3071 3073 3076 3078 3080 3082 3084 3085 3086 3087 3088 3089 3090 3091 3091 3091 3091 3092 3093 3093 3094 3095 3096 3098 3100 3102 3103 3104
2987 2986 2986 2987 2986 2986 2987 2988 2989 2990 2991 2993 2994 2995 2996 2996 2996 2998 3000 2999 2998 2998 2998 2997 2997 3000 3002 3003 3005 3007 3009 3012 3013 3015 3016 3017 3019 3022 3025 3028 3030 3032 3034 3035 3037 3039 3041 3043 3045 3047 3050 3052 3054 3056 3058 3060 3063 3065 3068 3070 3073 3075 3078 3080 3082 3083 3084 3085 3086 3087 3088 3089 3089 3089 3090 3090 3091 3091 3092 3094 3095 3096 3098 3100 3102 3103
2986 2986 2985 2986 2986 2985 2986 2987 2989 2990 2991 2993 2995 2995 2996 2996 2997 2999 3000 3000 2999 3000 3000 2998 2999 3002 3004 3005 3005 3006 3008 3010 3012 3013 3015 3017 3019 3022 3024 3026 3029 3030 3032 3033 3035 3037 3039 3041 3044 3046 3048 3050 3052 3054 3056 3057 3060 3062 3065 3067 3070 3073 3075 3078 3079 3081 3082 3083 3084 3086 3087 3087 3087 3087 3088 3088 3089 3090 3091 3092 3094 3095 3097 3098 3099 3100
2986 2986 2985 2984 2985 2985 2985 2986 2988 2990 2990 2992 2994 2995 2996 2997 2998 2999 3001 3001 3001 3002 3002 3000 3000 3003 3005 3006 3006 3006 3007 3009 3009 3011 3014 3017 3018 3020 3022 3025 3027 3029 3030 3032 3033 3035 3037 3040 3042 3044 3046 3048 3049 3051 3053 3055 3057 3060 3062 3065 3068 3070 3073 3075 3077 3079 3080 3081 3083 3084 3085 3085 3085 3085 3086 3086 3087 3088 3089 3091 3092 3094 3095 3096 3097 3098
2986 2986 2985 2985 2985 2985 2985 2985 2987 2989 2991 2992 2993 2994 2995 2996 2997 2999 3001 3002 3003 3004 3003 3003 3003 3004 3006 3006 3007 3007 3007 3008 3007 3007 3011 3015 3017 3019 3021 3023 3025 3027 3028 3030 3032 3034 3036 3038 3040 3042 3044 3046 3047 3049 3050 3053 3055 3058 3060 3063 3066 3069 3071 3073 3075 3076 3078 3079 3081 3083 3083 3084 3084 3084 3085 3085 3086 3087 3088 3089 3091 3093 3095 3096 3098 3099
2985 2986 2986 2986 2985 2984 2984 2985 2986 2988 2991 2991 2992 2994 2994 2995 2998 3000 3001 3003 3004 3004 3004 3005 3005 3006 3006 3007 3007 3008 3008 3010 3010 3009 3009 3012 3015 3017 3019 3022 3024 3025 3027 3029 3031 3033 3035 3037 3039 3041 3042 3044 3045 3047 3048 3051 3054 3056 3059 3061 3064 3067 3069 3071 3073 3074 3076 3078 3080 3081 3082 3083 3083 3084 3084 3085 3086 3086 3087 3089 3091 3093 3095 3097 3098 3099
2986 2986 2986 2986 2985 2984 2983 2984 2986 2988 2990 2990 2992 2994 2996 2997 2999 3000 3001 3004 3005 3006 3006 3007 3006 3007 3007 3008 3009 3010 3010 3011 3013 3013 3012 3012 3012 3014 3018 3021 3023 3024 3026 3028 3030 3032 3034 3036 3038 3039 3040 3041 3042 3044 3046 3049 3052 3055 3058 3061 3064 3066 3067 3069 3071 3073 3075 3077 3078 3080 3081 3081 3082 3083 3084 3084 3086 3087 3088 3089 3091 3093 3095 3096 3097 3098
2986 2986 2985 2985 2984 2983 2982 2983 2986 2989 2990 2990 2992 2994 2997 2999 2999 2998 3001 3004 3005 3006 3008 3007 3008 3009 3009 3009 3010 3010 3010 3011 3012 3013 3014 3014 3012 3013 3017 3021 3022 3023 3025 3028 3029 3031 3033 3034 3036 3037 3038 3040 3042 3044 3047 3050 3052 3055 3057 3060 3062 3064 3066 3068 3070 3072 3074 3076 3077 3078 3079 3080 3081 3082 3083 3084 3085 3087 3088 3089 3091 3093 3094 3096 3097 3097
2985 2985 2985 2985 2985 2984 2983 2983 2986 2988 2989 2991 2993 2994 2995 2997 2997 2997 3001 3003 3004 3005 3007 3008 3009 3010 3009 3009 3010 3010 3010 3011 3012 3013 3014 3015 3014 3015 3018 3021 3022 3024 3025 3027 3029 3030 3032 3033 3034 3036 3038 3040 3042 3045 3048 3051 3052 3053 3055 3058 3060 3062 3065 3067 3069 3071 3073 3075 3076 3077 3078 3079 3080 3080 3082 3083 3085 3086 3088 3089 3091 3093 3094 3096 3097 3097
2984 2984 2985 2985 2985 2985 2984 2984 2985 2988 2989 2991 2992 2993 2994 2995 2996 2998 3000 3002 3003 3005 3007 3008 3008 3009 3009 3009 3011 3012 3011 3011 3012 3013 3014 3015 3015 3017 3019 3021 3022 3024 3026 3027 3029 3030 3031 3032 3034 3036 3038 3040 3042 3044 3047 3050 3051 3050 3052 3055 3058 3061 3063 3065 3068 3070 3071 3073 3074 3075 3076 3077 3078 3079 3081 3082 3084 3086 3087 3089 3091 3093 3095 3096 3097 3098
2984 2984 2985 2985 2985 2985 2985 2986 2987 2989 2990 2990 2991 2992 2993 2994 2995 2997 2999 3001 3003 3006 3007 3007 3008 3009 3010 3010 3011 3013 3013 3012 3012 3013 3015 3015 3016 3018 3020 3021 3023 3024 3026 3027 3028 3030 3031 3032 3034 3036 3037 3039 3042 3043 3045 3049 3050 3051 3051 3053 3056 3059 3061 3064 3066 3068 3069 3071 3072 3073 3074 3076 3077 3078 3080 3081 3083 3084 3086 3088 3090 3092 3094 3095 3096 3097
2984 2985 2985 2985 2985 2985 2985 2986 2988 2989 2990 2990 2991 2992 2993 2994 2996 2998 3000 3002 3004 3006 3007 3008 3008 3010 3011 3011 3011 3012 3013 3013 3013 3014 3015 3016 3017 3018 3019 3021 3023 3024 3026 3027 3029 3030 3031 3032 3033 3035 3037 3040 3042 3043 3044 3047 3050 3051 3051 3052 3055 3057 3059 3062 3064 3066 3068 3069 3070 3072 3073 3074 3076 3077 3079 3080 3081 3083 3084 3086 3087 3089 3091 3093 3093 3094
2984 2984 2985 2984 2984 2984 2984 2985 2988 2989 2989 2990 2990 2991 2994 2996 2998 3000 3002 3004 3004 3006 3007 3008 3008 3010 3011 3012 3012 3012 3013 3013 3014 3014 3015 3016 3017 3018 3020 3021 3023 3024 3026 3027 3028 3030 3030 3032 3033 3035 3037 3038 3040 3042 3043 3045 3047 3048 3049 3051 3054 3055 3057 3060 3062 3064 3066 3067 3069 3070 3072 3073 3075 3076 3078 3079 3080 3081 3082 3083 3085 3087 3089 3090 3091 3092
2984 2984 2985 2985 2985 2984 2983 2986 2989 2989 2989 2989 2990 2991 2995 2997 2999 3001 3004 3005 3005 3005 3006 3007 3008 3011 3012 3012 3012 3012 3013 3014 3015 3016 3016 3017 3018 3019 3021 3022 3023 3025 3026 3027 3028 3030 3030 3031 3032 3034 3037 3038 3039 3040 3041 3043 3045 3046 3048 3050 3052 3054 3057 3059 3061 3063 3064 3066 3068 3069 3070 3072 3073 3075 3077 3078 3079 3080 3081 3082 3084 3086 3087 3087 3088 3090
2984 2984 2985 2986 2985 2984 2985 2987 2989 2989 2990 2990 2990 2992 2995 2998 3000 3002 3004 3004 3005 3006 3006 3007 3009 3011 3012 3013 3012 3013 3014 3015 3016 3017 3017 3018 3019 3020 3022 3023 3024 3026 3027 3027 3028 3030 3030 3030 3030 3032 3035 3037 3038 3039 3041 3043 3045 3046 3047 3050 3052 3054 3056 3058 3060 3061 3063 3064 3066 3067 3069 3070 3072 3074 3075 3076 3077 3078 3079 3081 3083 3084 3084 3084 3085 3087
2985 2985 2986 2986 2986 2986 2987 2988 2989 2990 2990 2991 2992 2994 2996 2998 3000 3002 3003 3004 3005 3006 3007 3008 3009 3011 3013 3013 3013 3013 3014 3016 3017 3018 3018 3019 3020 3021 3022 3024 3025 3026 3027 3028 3030 3031 3031 3031 3031 3032 3035 3038 3040 3041 3044 3045 3047 3048 3048 3050 3052 3054 3056 3057 3059 3060 3062 3063 3064 3066 3067 3069 3070 3072 3073 3074 3076 3076 3077 3078 3080 3080 3081 3082 3083 3084
2985 2986 2986 2987 2987 2987 2988 2989 2990 2990 2991 2991 2992 2994 2997 2999 3000 3002 3003 3004 3005 3006 3007 3008 3010 3012 3013 3014 3014 3014 3015 3016 3018 3019 3020 3021 3021 3022 3023 3024 3025 3026 3028 3029 3031 3033 3033 3034 3034 3035 3037 3040 3043 3046 3047 3048 3049 3050 3050 3051 3052 3053 3055 3056 3058 3059 3060 3062 3063 3064 3066 3068 3069 3069 3070 3072 3073 3074 3074 3075 3076 3077 3078 3078 3079 3080
2986 2986 2986 2987 2987 2988 2989 2991 2991 2991 2991 2992 2994 2996 2998 3000 3001 3002 3003 3004 3005 3007 3007 3009 3010 3012 3013 3015 3015 3015 3015 3017 3018 3020 3021 3022 3023 3024 3024 3025 3026 3027 3029 3030 3031 3033 3034 3035 3037 3038 3039 3041 3044 3047 3049 3050 3051 3052 3051 3051 3052 3053 3054 3056 3057 3058 3059 3060 3062 3063 3065 3066 3066 3067 3068 3069 3070 3070 3071 3072 3072 3073 3074 3074 3075 3076
2986 2986 2986 2988 2989 2989 2991 2993 2993 2993 2992 2994 2995 2997 2998 3000 3001 3003 3004 3005 3006 3007 3008 3009 3010 3012 3013 3014 3015 3015 3016 3018 3019 3020 3021 3023 3024 3025 3026 3026 3027 3028 3029 3030 3031 3033 3034 3036 3037 3039 3040 3042 3044 3046 3049 3050 3051 3052 3052 3052 3053 3054 3054 3055 3056 3057 3058 3059 3060 3061 3063 3063 3064 3065 3066 3066 3067 3067 3068 3069 3069 3069 3070 3070 3071 3071
2988 2988 2988 2990 2990 2991 2993 2995 2995 2995 2996 2996 2997 2998 3000 3001 3002 3004 3005 3006 3007 3008 3009 3010 3010 3011 3012 3012 3014 3016 3017 3018 3020 3021 3022 3024 3025 3026 3027 3028 3028 3029 3030 3031 3032 3034 3035 3036 3038 3039 3041 3042 3044 3046 3048 3049 3051 3051 3052 3052 3053 3053 3053 3054 3054 3055 3056 3058 3059 3060 3060 3061 3062 3063 3064 3064 3064 3065 3065 3065 3066 3066 3066 3067 3068 3068
2990 2990 2990 2992 2992 2993 2994 2996 2997 2997 2998 2999 3000 3001 3002 3003 3004 3005 3006 3007 3007 3008 3009 3011 3011 3012 3012 3012 3012 3015 3018 3019 3021 3022 3023 3024 3026 3027 3028 3029 3029 3030 3031 3032 3033 3035 3036 3037 3039 3040 3042 3043 3045 3046 3048 3049 3050 3050 3051 3051 3052 3052 3052 3053 3053 3054 3055 3056 3057 3058 3059 3060 3060 3061 3061 3062 3062 3062 3063 3063 3063 3063 3063 3064 3065 3066
2992 2991 2992 2993 2994 2994 2996 2997 2998 2999 3000 3001 3002 3003 3003 3004 3005 3006 3007 3008 3009 3009 3010 3011 3013 3014 3015 3014 3014 3015 3018 3020 3022 3023 3025 3026 3027 3028 3029 3030 3031 3032 3033 3034 3035 3036 3037 3039 3040 3041 3042 3044 3045 3046 3047 3047 3048 3049 3049 3050 3050 3051 3051 3052 3052 3053 3054 3054 3055 3056 3057 3057 3058 3058 3059 3059 3059 3060 3060 3061 3061 3061 3061 3061 3063 3063
2995 2994 2994 2995 2995 2996 2997 2998 2999 3000 3001 3002 3003 3004 3004 3005 3006 3007 3008 3009 3010 3010 3011 3012 3014 3015 3016 3017 3017 3017 3019 3021 3023 3024 3026 3027 3028 3029 3030 3031 3032 3033 3034 3035 3036 3037 3038 3039 3041 3042 3043 3044 3044 3045 3046 3046 3047 3047 3048 3048 3049 3049 3050 3051 3051 3052 3052 3053 3053 3054 3054 3055 3055 3055 3056 3057 3057 3058 3058 3058 3058 3059 3059 3060 3061 3061
2998 2997 2997 2997 2997 2998 2998 2999 3000 3002 3002 3003 3003 3003 3004 3006 3007 3008 3009 3010 3011 3011 3012 3013 3015 3016 3016 3018 3019 3019 3019 3021 3023 3025 3026 3027 3028 3030 3031 3032 3033 3034 3034 3036 3037 3038 3038 3039 3040 3041 3042 3042 3043 3043 3044 3044 3045 3045 3046 3046 3047 3047 3048 3049 3049 3050 3050 3050 3050 3051 3051 3052 3052 3052 3053 3054 3054 3055 3055 3056 3056 3056 3057 3058 3060 3060